Weather Roundup
Issued by NWS Corpus Christi, TX

Home | Current Version | Previous Version | Text Only | Print | Product List | Glossary On
Versions: 1 2 3 4 5 6 7 8 9 10 11 12 13 14 15 16 17 18 19 20 21 22 23 24 25 26 27 28 29 30 31 32 33 34 35 36 37 38 39 40 41 42 43 44 45 46 47 48 49 50
000
ASUS44 KCRP 062010
HRRCRP

SOUTH TEXAS REGIONAL WEATHER ROUNDUP
NATIONAL WEATHER SERVICE CORPUS CHRISTI TX
300 PM CDT MON JUL 06 2015


TXZ229>244-062100-
...CORPUS CHRISTI AREA OBSERVATIONS...

CITY           SKY/WX    TMP DP  RH WIND       PRES   REMARKS
CORPUS CHRISTI CLOUDY    90  74  59 SE21G30   30.01F HX  99
NAS CORPUS CHR PTSUNNY   87  78  74 SE21G29   30.01F HX 100
ROCKPORT       LGT RAIN  87  76  69 SE18      30.02F HX  97
KINGSVILLE NAS CLOUDY    91  79  67 SE21G32   29.99F HX 107
ALICE          MOSUNNY   91  76  61 SE18G26   29.98F HX 103
FALFURRIAS     MOSUNNY   93  73  52 SE16G24   29.97F HX 101
$$

...VICTORIA AREA OBSERVATIONS...

CITY           SKY/WX    TMP DP  RH WIND       PRES   REMARKS
VICTORIA       PTSUNNY   89  75  63 S22       30.03F HX  99
BEEVILLE       FAIR      90  72  54 S20G26    30.00F HX  97
PLEASANTON     MOSUNNY   92  67  42 SE16G23   29.98F HX  95
SAN ANTONIO    MOSUNNY   90  69  50 SE20G25   30.01F HX  94
$$

...LAREDO AREA OBSERVATIONS...

CITY           SKY/WX    TMP DP  RH WIND       PRES   REMARKS
LAREDO         SUNNY     98  68  37 SE18G29   29.94F HX 103
COTULLA        LGT RAIN  94  69  44 SE18G28   29.95F HX  99
DEL RIO        SUNNY     93  69  45 SE17      29.92F HX  98
MCALLEN        MOSUNNY   95  73  48 SE23G32   29.97F HX 104
HEBBRONVILLE     N/A     91  68  46 SE18G24   29.98F HX  95
$$

...OTHER TEXAS OBSERVATIONS...

CITY           SKY/WX    TMP DP  RH WIND       PRES   REMARKS
BROWNSVILLE    MOSUNNY   90  75  61 SE25G31   30.01F HX 100
HOUSTON        PTSUNNY   91  72  53 S17       30.05F HX  98
COL. STATION   PTSUNNY   92  69  47 S20G26    30.03F HX  97
AUSTIN         PTSUNNY   92  71  50 S17G25    30.00F HX  98
WACO           MOSUNNY   93  67  42 S25       30.00F HX  96
FORT WORTH     PTSUNNY   92  66  42 S24G32    29.96F HX  94
WICHITA FALLS  PTSUNNY   90  72  55 S15G23    29.91F HX  97
LUBBOCK        MOSUNNY   95  65  37 S16       29.94F HX  97
EL PASO        MOSUNNY   92  55  28 W6G18     30.02F HX  90
$$

...MARINE OBSERVATIONS...

STATION/POSITION TIME  SKY/WX   TEMP    WIND        PRES    VSBY  WAVE   SWELL
                                AIR SEA DIR/SP/G                  HT/PER HT/PER
                 (UTC)          (F)     (DEG/KT/KT) (MB)    (MI)  (FT/S) (FT/S)
PORT ARANSAS     2000            83 85  140/ 14/ 15 1017.5F
BUOY 90 E PORT A NOT AVBL
BUOY 45 SE BAFFI 1950            83 83  150/ 17/ 21 1016.3F         4/ 7   2/ 9
BUOY 200 E PT IS 1950            85 84  150/ 14/ 16 1018.4F         4/ 5
BUOY 15 E GALVES 1950            85 85  160/ 14/ 17 1017.8F         4/ 6
$$



USA.gov is the U.S. government's official web portal to all federal, state and local government web resources and services.